QLK25F YMML-YMHB

Flight info

Callsign QLK25F
Flight time 1h 0m
Altitude 39000
Route SUNTI H169 IRSOM V33 MORGO
Aircraft A20N/M-SDE2E3FGHIRWXY/LB1

Departure

Time 2026-04-24 13:36
Airport Melbourne Airport (YMML)

Arrival

Time 2026-04-24 14:36
Airport Hobart International Airport (YMHB)
Time Latitude Longitude Altitude Speed Heading
2026-04-24 13:18 -37.66751 144.84645 408 ft 0 kts 172°
2026-04-24 13:26 -37.66750 144.84644 408 ft 2 kts 172°
2026-04-24 13:27 -37.66725 144.84641 406 ft 4 kts 179°
2026-04-24 13:27 -37.66698 144.84643 407 ft 4 kts 187°
2026-04-24 13:27 -37.66671 144.84649 408 ft 4 kts 201°
2026-04-24 13:27 -37.66649 144.84666 405 ft 4 kts 239°
2026-04-24 13:28 -37.66645 144.84676 411 ft 0 kts 262°
2026-04-24 13:32 -37.66646 144.84667 411 ft 4 kts 264°
2026-04-24 13:32 -37.66653 144.84592 406 ft 13 kts 262°
2026-04-24 13:32 -37.66671 144.84454 408 ft 19 kts 262°
2026-04-24 13:32 -37.66693 144.84268 404 ft 24 kts 261°
2026-04-24 13:33 -37.66813 144.84201 399 ft 22 kts 173°
2026-04-24 13:33 -37.66987 144.84231 393 ft 28 kts 171°
2026-04-24 13:33 -37.67196 144.84269 386 ft 29 kts 172°
2026-04-24 13:33 -37.67406 144.84308 378 ft 31 kts 172°
2026-04-24 13:34 -37.67638 144.84352 371 ft 35 kts 172°
2026-04-24 13:34 -37.67843 144.84295 367 ft 32 kts 239°
2026-04-24 13:34 -37.67859 144.84022 363 ft 32 kts 297°
2026-04-24 13:34 -37.67680 144.83927 369 ft 27 kts 355°
2026-04-24 13:35 -37.67351 144.83884 382 ft 85 kts 348°
2026-04-24 13:35 -37.66533 144.83722 407 ft 149 kts 352°
2026-04-24 13:35 -37.65380 144.83492 689 ft 183 kts 353°
2026-04-24 13:35 -37.63951 144.83297 1006 ft 220 kts 355°
2026-04-24 13:36 -37.62498 144.83053 2431 ft 204 kts 355°
2026-04-24 13:36 -37.61047 144.82812 3273 ft 219 kts 354°
2026-04-24 13:36 -37.59450 144.82718 3920 ft 239 kts
2026-04-24 13:36 -37.57778 144.83244 4607 ft 260 kts 22°
2026-04-24 13:37 -37.56072 144.84267 4904 ft 286 kts 25°
2026-04-24 13:37 -37.54219 144.85422 4989 ft 314 kts 25°
2026-04-24 13:37 -37.52237 144.86658 4988 ft 312 kts 25°
2026-04-24 13:37 -37.50339 144.87833 4987 ft 294 kts 24°
2026-04-24 13:38 -37.48556 144.88915 4986 ft 276 kts 23°
2026-04-24 13:38 -37.46959 144.90135 5015 ft 268 kts 39°
2026-04-24 13:38 -37.45805 144.91998 5238 ft 277 kts 62°
2026-04-24 13:38 -37.45328 144.94368 6005 ft 282 kts 87°
2026-04-24 13:39 -37.45616 144.96774 6978 ft 285 kts 110°
2026-04-24 13:39 -37.46671 144.98909 7786 ft 293 kts 135°
2026-04-24 13:39 -37.48375 145.00314 8617 ft 296 kts 161°
2026-04-24 13:39 -37.50408 145.00745 9403 ft 301 kts 180°
2026-04-24 13:40 -37.52525 145.00806 9822 ft 305 kts 181°
2026-04-24 13:40 -37.54652 145.00858 9964 ft 306 kts 181°
2026-04-24 13:40 -37.56760 145.00918 9989 ft 307 kts 180°
2026-04-24 13:40 -37.58891 145.00989 9989 ft 306 kts 180°
2026-04-24 13:41 -37.61029 145.01066 9991 ft 307 kts 180°
2026-04-24 13:41 -37.63172 145.01146 9989 ft 307 kts 180°
2026-04-24 13:41 -37.65310 145.01226 9990 ft 307 kts 180°
2026-04-24 13:41 -37.67417 145.01305 9991 ft 306 kts 180°
2026-04-24 13:42 -37.69483 145.01385 10004 ft 286 kts 180°
2026-04-24 13:42 -37.70307 145.01417 10012 ft 279 kts 180°
2026-04-24 13:42 -37.72220 145.01445 10035 ft 270 kts 187°
2026-04-24 13:42 -37.73455 145.01274 10063 ft 273 kts 191°
2026-04-24 13:43 -37.75392 145.00958 10175 ft 290 kts 190°
2026-04-24 13:43 -37.78201 145.00525 10791 ft 315 kts 189°
2026-04-24 13:43 -37.80443 145.00187 11152 ft 337 kts 189°
2026-04-24 13:43 -37.82057 144.99946 11389 ft 352 kts 188°
2026-04-24 13:44 -37.85314 144.99465 12403 ft 358 kts 188°
2026-04-24 13:44 -37.86991 144.99218 12903 ft 359 kts 188°
2026-04-24 13:44 -37.89496 144.98847 13724 ft 362 kts 188°
2026-04-24 13:44 -37.91974 144.98479 14552 ft 365 kts 187°
2026-04-24 13:45 -37.94508 144.98104 15271 ft 369 kts 187°
2026-04-24 13:45 -37.97081 144.98026 15984 ft 374 kts 176°
2026-04-24 13:45 -37.99662 144.98560 16689 ft 378 kts 166°
2026-04-24 13:45 -38.02181 144.99629 17391 ft 383 kts 161°
2026-04-24 13:46 -38.04708 145.00767 18085 ft 387 kts 161°
2026-04-24 13:46 -38.07270 145.01909 18749 ft 391 kts 161°
2026-04-24 13:46 -38.09845 145.03053 19376 ft 394 kts 162°
2026-04-24 13:46 -38.12447 145.04207 19992 ft 397 kts 162°
2026-04-24 13:47 -38.15070 145.05373 20586 ft 401 kts 162°
2026-04-24 13:47 -38.17707 145.06547 21195 ft 404 kts 162°
2026-04-24 13:47 -38.20376 145.07736 21788 ft 408 kts 162°
2026-04-24 13:47 -38.23065 145.08935 22375 ft 411 kts 162°
2026-04-24 13:48 -38.25773 145.10145 22952 ft 415 kts 162°
2026-04-24 13:48 -38.28517 145.11371 23537 ft 418 kts 162°
2026-04-24 13:48 -38.31273 145.12602 24078 ft 422 kts 163°
2026-04-24 13:48 -38.34022 145.13825 24548 ft 425 kts 163°
2026-04-24 13:49 -38.36821 145.15071 25015 ft 428 kts 163°
2026-04-24 13:49 -38.39646 145.16333 25481 ft 431 kts 163°
2026-04-24 13:49 -38.42483 145.17605 25947 ft 434 kts 163°
2026-04-24 13:49 -38.45334 145.18892 26387 ft 437 kts 162°
2026-04-24 13:50 -38.48211 145.20202 26818 ft 440 kts 162°
2026-04-24 13:50 -38.51097 145.21512 27249 ft 442 kts 162°
2026-04-24 13:50 -38.54016 145.22817 27668 ft 445 kts 163°
2026-04-24 13:50 -38.56958 145.24109 28055 ft 448 kts 163°
2026-04-24 13:51 -38.59927 145.25408 28469 ft 451 kts 163°
2026-04-24 13:51 -38.62902 145.26711 28842 ft 453 kts 163°
2026-04-24 13:51 -38.65876 145.28017 29202 ft 456 kts 163°
2026-04-24 13:51 -38.68859 145.29332 29563 ft 459 kts 163°
2026-04-24 13:52 -38.71877 145.30662 29918 ft 461 kts 163°
2026-04-24 13:52 -38.74922 145.32004 30267 ft 464 kts 163°
2026-04-24 13:52 -38.77983 145.33355 30584 ft 466 kts 163°
2026-04-24 13:52 -38.81078 145.34723 30885 ft 469 kts 163°
2026-04-24 13:53 -38.84164 145.36088 31190 ft 471 kts 163°
2026-04-24 13:53 -38.87264 145.37461 31511 ft 473 kts 163°
2026-04-24 13:53 -38.90376 145.38841 31889 ft 472 kts 163°
2026-04-24 13:53 -38.93474 145.40216 32292 ft 472 kts 163°
2026-04-24 13:54 -38.96086 145.41376 32628 ft 471 kts 163°
2026-04-24 13:54 -38.98705 145.42543 32967 ft 471 kts 163°
2026-04-24 13:54 -39.01797 145.43922 33338 ft 470 kts 163°
2026-04-24 13:54 -39.03689 145.44766 33577 ft 470 kts 163°
2026-04-24 13:55 -39.05623 145.45629 33813 ft 469 kts 163°
2026-04-24 13:55 -39.07714 145.46563 34058 ft 469 kts 163°
2026-04-24 13:55 -39.10639 145.47871 34410 ft 468 kts 163°
2026-04-24 13:55 -39.13654 145.49225 34731 ft 467 kts 163°
2026-04-24 13:56 -39.16732 145.50607 35043 ft 465 kts 163°
2026-04-24 13:56 -39.19803 145.51983 35364 ft 464 kts 163°
2026-04-24 13:56 -39.22851 145.53348 35682 ft 463 kts 163°
2026-04-24 13:56 -39.25876 145.54703 35967 ft 462 kts 164°
2026-04-24 13:57 -39.28898 145.56055 36250 ft 461 kts 164°
2026-04-24 13:57 -39.31922 145.57409 36514 ft 460 kts 164°
2026-04-24 13:57 -39.34945 145.58764 36781 ft 459 kts 164°
2026-04-24 13:57 -39.37954 145.60114 37050 ft 458 kts 164°
2026-04-24 13:58 -39.40951 145.61462 37293 ft 457 kts 164°
2026-04-24 13:58 -39.43957 145.62816 37534 ft 457 kts 164°
2026-04-24 13:58 -39.46960 145.64171 37773 ft 456 kts 164°
2026-04-24 13:58 -39.49956 145.65525 37992 ft 455 kts 164°
2026-04-24 13:59 -39.52944 145.66876 38224 ft 455 kts 164°
2026-04-24 13:59 -39.55942 145.68239 38438 ft 454 kts 164°
2026-04-24 13:59 -39.58908 145.69589 38644 ft 453 kts 164°
2026-04-24 13:59 -39.61894 145.70948 38843 ft 453 kts 164°
2026-04-24 14:00 -39.64861 145.72296 39022 ft 452 kts 164°
2026-04-24 14:00 -39.67820 145.73640 39176 ft 452 kts 164°
2026-04-24 14:00 -39.70763 145.74978 39311 ft 451 kts 165°
2026-04-24 14:00 -39.73752 145.76337 39375 ft 452 kts 165°
2026-04-24 14:01 -39.79685 145.79040 39378 ft 451 kts 165°
2026-04-24 14:01 -39.85304 145.81603 39378 ft 451 kts 165°
2026-04-24 14:02 -39.91223 145.84305 39381 ft 451 kts 165°
2026-04-24 14:02 -39.97160 145.87023 39384 ft 452 kts 165°
2026-04-24 14:03 -40.03096 145.89752 39382 ft 452 kts 165°
2026-04-24 14:03 -40.08985 145.92483 39383 ft 452 kts 165°
2026-04-24 14:04 -40.14929 145.95243 39381 ft 452 kts 165°
2026-04-24 14:04 -40.20865 145.98003 39386 ft 452 kts 165°
2026-04-24 14:05 -40.26197 146.00486 39275 ft 453 kts 165°
2026-04-24 14:05 -40.29128 146.01853 39049 ft 452 kts 165°
2026-04-24 14:05 -40.30526 146.02505 38924 ft 452 kts 165°
2026-04-24 14:06 -40.32491 146.03424 38741 ft 452 kts 165°
2026-04-24 14:06 -40.33585 146.03935 38632 ft 452 kts 165°
2026-04-24 14:06 -40.37286 146.05665 38296 ft 455 kts 164°
2026-04-24 14:07 -40.40233 146.07042 38026 ft 456 kts 165°
2026-04-24 14:07 -40.43285 146.08465 37757 ft 457 kts 165°
2026-04-24 14:07 -40.46288 146.09864 37482 ft 458 kts 165°
2026-04-24 14:07 -40.49299 146.11271 37227 ft 460 kts 165°
2026-04-24 14:08 -40.52295 146.12674 36972 ft 461 kts 164°
2026-04-24 14:08 -40.55339 146.14104 36720 ft 462 kts 164°
2026-04-24 14:08 -40.58371 146.15531 36465 ft 463 kts 164°
2026-04-24 14:08 -40.61414 146.16966 36208 ft 464 kts 164°
2026-04-24 14:09 -40.64454 146.18400 35969 ft 466 kts 164°
2026-04-24 14:09 -40.67513 146.19845 35723 ft 467 kts 164°
2026-04-24 14:09 -40.70494 146.21253 35490 ft 468 kts 164°
2026-04-24 14:09 -40.73548 146.22698 35391 ft 469 kts 164°
2026-04-24 14:10 -40.79730 146.25628 35384 ft 470 kts 164°
2026-04-24 14:10 -40.85838 146.28529 35391 ft 470 kts 164°
2026-04-24 14:11 -40.92004 146.31463 35393 ft 471 kts 164°
2026-04-24 14:12 -41.01276 146.35884 35392 ft 472 kts 164°
2026-04-24 14:12 -41.07443 146.38832 35391 ft 472 kts 164°
2026-04-24 14:13 -41.13612 146.41788 35397 ft 472 kts 164°
2026-04-24 14:13 -41.19409 146.44918 35401 ft 475 kts 158°
2026-04-24 14:14 -41.25397 146.48711 35398 ft 476 kts 158°
2026-04-24 14:14 -41.34340 146.54349 35391 ft 477 kts 158°
2026-04-24 14:15 -41.37346 146.56248 35123 ft 479 kts 158°
2026-04-24 14:15 -41.40362 146.58156 34485 ft 483 kts 158°
2026-04-24 14:15 -41.43409 146.60084 33372 ft 487 kts 158°
2026-04-24 14:15 -41.46466 146.62024 32556 ft 484 kts 158°
2026-04-24 14:16 -41.49509 146.63955 31784 ft 484 kts 158°
2026-04-24 14:16 -41.52542 146.65874 31075 ft 483 kts 158°
2026-04-24 14:16 -41.55343 146.67650 30518 ft 480 kts 158°
2026-04-24 14:17 -41.61355 146.71477 29295 ft 469 kts 158°
2026-04-24 14:17 -41.64281 146.73346 28689 ft 464 kts 157°
2026-04-24 14:17 -41.70004 146.77032 27524 ft 456 kts 157°
2026-04-24 14:18 -41.72867 146.78890 26933 ft 453 kts 157°
2026-04-24 14:18 -41.75682 146.80717 26335 ft 450 kts 157°
2026-04-24 14:18 -41.78496 146.82543 25701 ft 448 kts 157°
2026-04-24 14:18 -41.81291 146.84357 25138 ft 445 kts 157°
2026-04-24 14:19 -41.83147 146.85561 24730 ft 444 kts 157°
2026-04-24 14:19 -41.86847 146.87960 23945 ft 441 kts 157°
2026-04-24 14:19 -41.89611 146.89757 23315 ft 438 kts 157°
2026-04-24 14:19 -41.92339 146.91534 22723 ft 433 kts 157°
2026-04-24 14:20 -41.95007 146.93273 22145 ft 429 kts 157°
2026-04-24 14:20 -41.97679 146.95018 21564 ft 426 kts 157°
2026-04-24 14:20 -42.00329 146.96748 20982 ft 423 kts 157°
2026-04-24 14:20 -42.02965 146.98470 20404 ft 420 kts 156°
2026-04-24 14:21 -42.05591 147.00186 19818 ft 418 kts 156°
2026-04-24 14:21 -42.08214 147.01902 19211 ft 416 kts 156°
2026-04-24 14:21 -42.10786 147.03587 18619 ft 408 kts 156°
2026-04-24 14:21 -42.13323 147.05250 18050 ft 405 kts 156°
2026-04-24 14:22 -42.15805 147.06933 17486 ft 403 kts 152°
2026-04-24 14:22 -42.18127 147.09035 16921 ft 402 kts 143°
2026-04-24 14:22 -42.22267 147.14100 15780 ft 398 kts 139°
2026-04-24 14:23 -42.24272 147.16581 15232 ft 396 kts 139°
2026-04-24 14:23 -42.26313 147.19105 14654 ft 394 kts 139°
2026-04-24 14:23 -42.28309 147.21576 14067 ft 385 kts 139°
2026-04-24 14:23 -42.30259 147.23997 13534 ft 374 kts 139°
2026-04-24 14:24 -42.32259 147.26169 13186 ft 363 kts 148°
2026-04-24 14:24 -42.34461 147.27901 12884 ft 375 kts 153°
2026-04-24 14:24 -42.36756 147.29600 12450 ft 374 kts 153°
2026-04-24 14:24 -42.38995 147.31275 12017 ft 369 kts 152°
2026-04-24 14:25 -42.40482 147.32391 11733 ft 366 kts 152°
2026-04-24 14:25 -42.43401 147.34582 11181 ft 359 kts 152°
2026-04-24 14:25 -42.45581 147.36216 10701 ft 359 kts 152°
2026-04-24 14:25 -42.47781 147.37865 9984 ft 362 kts 152°
2026-04-24 14:26 -42.49948 147.39491 9595 ft 346 kts 152°
2026-04-24 14:26 -42.51309 147.40513 9461 ft 333 kts 152°
2026-04-24 14:26 -42.53925 147.42480 9152 ft 309 kts 152°
2026-04-24 14:26 -42.55153 147.43405 8858 ft 304 kts 152°
2026-04-24 14:27 -42.56995 147.44792 8306 ft 301 kts 152°
2026-04-24 14:27 -42.59351 147.46674 7779 ft 290 kts 144°
2026-04-24 14:27 -42.60916 147.48419 7453 ft 294 kts 140°
2026-04-24 14:27 -42.61975 147.49633 7216 ft 295 kts 140°
2026-04-24 14:28 -42.64034 147.51978 6762 ft 288 kts 140°
2026-04-24 14:28 -42.65570 147.53721 6413 ft 286 kts 140°
2026-04-24 14:28 -42.66579 147.54869 6195 ft 284 kts 140°
2026-04-24 14:28 -42.68067 147.56566 6032 ft 275 kts 140°
2026-04-24 14:29 -42.69500 147.58207 5997 ft 261 kts 140°
2026-04-24 14:29 -42.70850 147.59754 5998 ft 246 kts 140°
2026-04-24 14:29 -42.72141 147.61229 5802 ft 241 kts 140°
2026-04-24 14:29 -42.73418 147.62687 5542 ft 239 kts 140°
2026-04-24 14:30 -42.74692 147.64141 5267 ft 238 kts 140°
2026-04-24 14:30 -42.75960 147.65589 4981 ft 238 kts 140°
2026-04-24 14:30 -42.77226 147.67037 4693 ft 237 kts 140°
2026-04-24 14:30 -42.78482 147.68480 4415 ft 236 kts 141°
2026-04-24 14:31 -42.79719 147.69902 4277 ft 227 kts 141°
2026-04-24 14:31 -42.80985 147.71068 4152 ft 214 kts 164°
2026-04-24 14:31 -42.82405 147.71183 3923 ft 202 kts 201°
2026-04-24 14:31 -42.83549 147.70308 3878 ft 179 kts 220°
2026-04-24 14:32 -42.84493 147.69297 3792 ft 166 kts 223°
2026-04-24 14:32 -42.85364 147.68339 3702 ft 155 kts 222°
2026-04-24 14:32 -42.86172 147.67487 3513 ft 146 kts 221°
2026-04-24 14:32 -42.86990 147.66657 3169 ft 146 kts 221°
2026-04-24 14:33 -42.87730 147.65740 2844 ft 142 kts 233°
2026-04-24 14:33 -42.88301 147.64659 2470 ft 141 kts 244°
2026-04-24 14:33 -42.88701 147.63448 2164 ft 138 kts 255°
2026-04-24 14:33 -42.88919 147.62174 1826 ft 138 kts 265°
2026-04-24 14:34 -42.88952 147.60875 1530 ft 134 kts 276°
2026-04-24 14:34 -42.88801 147.59565 1361 ft 143 kts 287°
2026-04-24 14:34 -42.88463 147.58303 1171 ft 142 kts 297°
2026-04-24 14:34 -42.87950 147.57149 988 ft 141 kts 309°
2026-04-24 14:35 -42.87307 147.56154 769 ft 141 kts 315°
2026-04-24 14:35 -42.86643 147.55200 549 ft 138 kts 320°
2026-04-24 14:35 -42.85956 147.54324 429 ft 135 kts 318°
2026-04-24 14:35 -42.85280 147.53402 268 ft 138 kts 319°
2026-04-24 14:36 -42.84613 147.52516 112 ft 128 kts 317°
2026-04-24 14:36 -42.83987 147.51680 35 ft 126 kts 315°
2026-04-24 14:36 -42.83428 147.50924 23 ft 77 kts 316°
2026-04-24 14:36 -42.83360 147.50585 21 ft 22 kts 207°
2026-04-24 14:37 -42.83469 147.50602 23 ft 10 kts 115°
2026-04-24 14:37 -42.83505 147.50664 27 ft 9 kts 137°
2026-04-24 14:37 -42.83507 147.50666 27 ft 0 kts 137°
2026-04-24 14:37 -42.83510 147.50670 26 ft 0 kts 137°
2026-04-24 14:38 -42.83547 147.50693 25 ft 15 kts 175°